Home   Weather   Limoges   Past weeks

Flag for France Past Weather in Limoges, Limousin, France — Yesterday and Last 2 Weeks

Now
46 °F

Clear.


Feels Like: 45 °F
Forecast: 32 / 49 °F
Wind: 3 mph from Northeast

Location: Limoges Airport

Current Time: Jan 21, 2017 at 7:03:12 pm

Latest Report: Jan 21, 2017 at 6:00 pm


Visibility: 10 mi

Pressure: 30.18 "Hg

Humidity: 43%

Dew Point: 25 °F

Location of LimogesLocation

Past Weather in Limoges — Graph

°F

Limoges Temperature Yesterday

Maximum temperature yesterday: 48 °F (at 4:00 pm)
Minimum temperature yesterday: 25 °F (at 6:00 am)
Average temperature yesterday: 34 °F

High & Low Weather Summary for the Past Weeks

 TemperatureHumidityPressure
High50 °F (Jan 21, 2:00 pm)100% (Jan 8, 6:00 am)30.51 "Hg (Jan 8, 6:00 am)
Low19 °F (Jan 19, 8:00 am)8% (Jan 7, 12:30 pm)29.71 "Hg (Jan 12, 7:30 pm)
Average35 °F79%30.22 "Hg
* Reported Jan 6 5:00 pm — Jan 21 5:30 pm, Limoges, Weather by CustomWeather, © 2017

Note: Actual official high and low records may vary slightly from our data, if they occured in-between our weather recording intervals... More about our weather records

Advertising

Limoges Weather History for the Previous 24 Hours

Scroll right to see more
 ConditionsComfort  
Time TempWeatherWind HumidityBarometerVisibility
5:30 pm
Sat, Jan 21
46 °FSunny.3 mph43%30.18 "Hg10 mi
5:00 pm50 °FSunny.2 mph37%30.18 "Hg10 mi
4:30 pm50 °FSunny.3 mph37%30.18 "Hg10 mi
4:00 pm50 °FPassing clouds.5 mph40%30.18 "HgN/A
3:30 pm50 °FPassing clouds.6 mph37%30.18 "HgN/A
3:00 pm50 °FSunny.7 mph37%30.18 "Hg10 mi
2:30 pm50 °FPassing clouds.7 mph37%30.18 "HgN/A
2:00 pm50 °FPassing clouds.7 mph37%30.18 "HgN/A
1:30 pm48 °FPassing clouds.5 mph43%30.21 "HgN/A
1:00 pm46 °FPassing clouds.6 mph46%30.21 "HgN/A
12:30 pm45 °FSunny.7 mph46%30.21 "Hg10 mi
12:00 pm43 °FPassing clouds.6 mph49%30.24 "HgN/A
11:30 am41 °FSunny.6 mph49%30.24 "Hg10 mi
11:00 am39 °FSunny.5 mph52%30.24 "Hg10 mi
10:30 am37 °FSunny.6 mph56%30.24 "Hg10 mi
10:00 am36 °FSunny.8 mph60%30.24 "Hg10 mi
9:30 am34 °FSunny.6 mph65%30.24 "Hg10 mi
9:00 am32 °FSunny.6 mph64%30.24 "Hg10 mi
8:30 am32 °FSunny.6 mph64%30.24 "Hg10 mi
8:00 am30 °FClear.6 mph69%30.24 "Hg10 mi
7:30 am34 °FClear.3 mph60%30.21 "Hg10 mi
7:00 am34 °FClear.5 mph60%30.21 "Hg10 mi
6:30 am36 °FClear.5 mph52%30.21 "Hg10 mi
6:00 am36 °FClear.5 mph56%30.21 "Hg10 mi
5:30 am34 °FClear.6 mph60%30.21 "Hg10 mi
5:00 am34 °FClear.6 mph60%30.21 "Hg10 mi
4:30 am34 °FClear.6 mph60%30.24 "Hg10 mi
4:00 am34 °FClear.6 mph65%30.24 "Hg10 mi
3:30 am34 °FClear.6 mph65%30.24 "Hg10 mi
3:00 am34 °FClear.6 mph70%30.24 "Hg10 mi
2:30 am34 °FClear.5 mph70%30.24 "Hg10 mi
2:00 am36 °FClear.5 mph65%30.24 "Hg10 mi
1:30 am36 °FClear.7 mph65%30.24 "Hg10 mi
1:00 am36 °FClear.6 mph65%30.24 "Hg10 mi
12:30 am36 °FClear.6 mph65%30.24 "Hg10 mi
12:00 am37 °FClear.5 mph60%30.27 "Hg10 mi
11:30 pm
Fri, Jan 20
37 °FClear.8 mph60%30.27 "Hg10 mi
11:00 pm37 °FClear.9 mph60%30.27 "Hg10 mi
10:30 pm37 °FClear.9 mph60%30.27 "Hg10 mi
10:00 pm37 °FClear.7 mph60%30.27 "Hg10 mi
9:30 pm37 °FClear.8 mph60%30.27 "Hg10 mi
9:00 pm37 °FClear.7 mph60%30.27 "Hg10 mi
8:30 pm39 °FClear.7 mph56%30.27 "Hg10 mi
8:00 pm39 °FClear.7 mph56%30.27 "Hg10 mi
7:30 pm41 °FClear.9 mph53%30.27 "Hg10 mi
7:00 pm41 °FClear.7 mph53%30.24 "Hg10 mi
Weather by CustomWeather, © 2017

See weather overviewHow to use our weather pages